Station LUIT2 - 8771972 - San Luis Pass, TX Image indicating link to RSS feed of recent meteorological observations for station LUIT2


Conditions at LUIT2 as of
(11:30 am CDT)
1630 GMT on 04/18/2024:
     

Click on the graph icon in the table below to see a time series plot of the last five days of that observation.

5-day plot - Wind Direction Wind Direction (WDIR): SE ( 140 deg true )
5-day plot - Wind Speed Wind Speed (WSPD): 9.9 kts
5-day plot - Wind Gust Wind Gust (GST): 12.0 kts
5-day plot - Atmospheric Pressure Atmospheric Pressure (PRES):29.98 in
5-day plot - Air Temperature Air Temperature (ATMP): 75.4 °F
5-day plot - Water Temperature Water Temperature (WTMP): 75.6 °F
5-day plot - Wind Speed at 10 Meters Wind Speed at 10 meters (WSPD10M): 9.7 kts
5-day plot - Wind Speed at 20 Meters Wind Speed at 20 meters (WSPD20M): 11.7 kts
5-day plot -  Wind Speed, Wind Gust and Atmospheric Pressure Combined plot of Wind Speed, Gust, and Air Pressure
Previous observations
TIME
(CDT)
5-day plot - Wind Direction
WDIR
 
5-day plot - Wind Speed
WSPD
kts
5-day plot - Wind Gust
GST
kts
5-day plot - Wave Height
WVHT
ft
5-day plot - Dominant Wave Period
DPD
sec
5-day plot - Average Wave Period
APD
sec
5-day plot - Mean Wave Direction
MWD
 
5-day plot - Atmospheric Pressure
PRES
in
5-day plot - Pressure Tendency
PTDY
in
5-day plot - Air Temperature
ATMP
°F
5-day plot - Water Temperature
WTMP
°F
5-day plot - Dew Point
DEWP
°F
5-day plot - Salinity
SAL
psu
5-day plot - Visibility
VIS
nmi
5-day plot - Tide (above MLLW)
TIDE
ft
2024-04-18 11:24 am SE 8.9 12.0----29.98- 75.2 75.6----
2024-04-18 11:18 amSSE 8.0 9.9----29.98- 75.6 75.6----
2024-04-18 11:12 amSSE 8.9 12.0----29.99- 75.2 75.6----
2024-04-18 11:06 am SE 8.9 11.1----29.99- 75.6 75.6----
2024-04-18 11:00 am SE 9.9 12.0----29.98+0.04 75.9 75.6----
2024-04-18 10:54 am SE 8.9 11.1----29.98- 75.4 75.6----
2024-04-18 10:48 am SE 7.0 8.9----29.98- 75.7 75.7----
2024-04-18 10:42 am SE 6.0 9.9----29.98- 75.7 75.7----
2024-04-18 10:36 amESE 7.0 9.9----29.98- 75.4 75.7----
2024-04-18 10:30 amESE 7.0 8.9----29.98- 75.6 75.7----
2024-04-18 10:24 am SE 7.0 8.9----29.98- 75.2 75.6----
2024-04-18 10:18 am SE 7.0 9.9----29.98- 75.4 75.6----
2024-04-18 10:12 amESE 8.0 9.9----29.98- 75.6 75.7----
2024-04-18 10:06 amESE 8.0 11.1----29.97- 76.3 75.6----
2024-04-18 10:00 am SE 7.0 9.9----29.98+0.04 75.6 75.6----
2024-04-18 09:54 am SE 6.0 9.9----29.97- 75.6 75.6----
2024-04-18 09:48 am SE 8.0 9.9------------
2024-04-18 09:42 am SE 8.0 12.0------------
2024-04-18 09:36 am SE 11.1 12.0------------
2024-04-18 09:30 am SE 8.9 11.1----29.96- 74.7 75.4----
2024-04-18 09:24 am SE 7.0 9.9----29.96- 74.7 75.4----
2024-04-18 09:18 amESE 9.9 12.0----29.96- 74.5 75.4----
2024-04-18 09:12 amESE 8.9 12.0----29.95- 74.5 75.4----
2024-04-18 09:06 am SE 8.0 12.0----29.95- 74.3 75.4----
2024-04-18 09:00 am SE 8.9 11.1----29.96+0.03 74.1 75.4----
2024-04-18 08:54 amESE 8.0 11.1----29.96- 74.1 75.4----
2024-04-18 08:48 amESE 8.0 11.1----29.95- 74.1 75.4----
2024-04-18 08:42 am SE 8.0 9.9----29.95- 73.9 75.4----
2024-04-18 08:36 amESE 8.0 12.0----29.96- 73.9 75.4----
2024-04-18 08:30 amESE 8.9 11.1----29.95- 73.9 75.2----
2024-04-18 08:24 amESE 8.0 12.0----29.95- 73.9 75.2----
2024-04-18 08:18 amESE 8.9 11.1----29.95- 73.9 75.2----
2024-04-18 08:12 amESE 8.0 9.9----29.95- 73.9 75.2----
2024-04-18 08:06 amESE 8.0 8.9----29.95- 73.9 75.2----
2024-04-18 08:00 amESE 7.0 8.0----29.95+0.04 73.9 75.2----
2024-04-18 07:54 amESE 8.0 8.9----29.94- 73.9 75.2----
2024-04-18 07:48 amESE 6.0 8.0----29.95- 73.9 75.2----
2024-04-18 07:42 am SE 7.0 8.9----29.94- 73.9 75.2----
2024-04-18 07:36 am SE 6.0 8.9----29.94- 73.9 75.2----
2024-04-18 07:30 amESE 6.0 8.9----29.94- 73.9 75.2----
2024-04-18 07:24 amESE 6.0 8.9----29.94- 73.9 75.2----
2024-04-18 07:18 am SE 7.0 8.9----29.94- 73.9 75.2----
2024-04-18 07:12 am SE 6.0 8.9----29.94- 73.8 75.2----
2024-04-18 07:06 am SE 6.0 8.0----29.93- 73.8 75.0----
2024-04-18 07:00 am SE 6.0 8.0----29.93+0.02 73.9 75.0----
2024-04-18 06:54 am SE 6.0 8.0----29.93- 73.9 75.0----
2024-04-18 06:48 amSSE 5.1 6.0----29.93- 73.9 75.0----
2024-04-18 06:42 amSSE 5.1 7.0----29.93- 73.9 75.0----
2024-04-18 06:36 amSSE 5.1 7.0----29.93- 73.9 75.0----
2024-04-18 06:30 am SE 7.0 8.9----29.93- 73.9 75.0----
2024-04-18 06:24 am SE 7.0 8.9----29.93- 73.9 75.0----
2024-04-18 06:18 am SE 6.0 8.0----29.92- 73.9 75.0----
2024-04-18 06:12 am SE 5.1 7.0----29.92- 73.9 75.0----
2024-04-18 06:06 am SE 6.0 8.0----29.92- 73.9 75.0----
2024-04-18 06:00 am SE 6.0 8.0----29.92+0.00 73.9 74.8----
2024-04-18 05:54 am SE 7.0 8.9----29.92- 73.9 75.0----
2024-04-18 05:48 am SE 5.1 7.0----29.91- 73.9 75.0----
2024-04-18 05:42 am SE 6.0 8.0----29.92- 73.9 75.0----
2024-04-18 05:36 am SE 6.0 8.0----29.92- 73.9 75.0----
2024-04-18 05:30 amESE 7.0 8.9----29.91- 73.9 75.0----
2024-04-18 05:24 amSSE 6.0 8.0----29.92- 73.9 75.0----
2024-04-18 05:18 am SE 5.1 8.0----29.91- 73.9 75.0----
2024-04-18 05:12 am SE 5.1 8.9----29.91- 73.9 75.0----
2024-04-18 05:06 am SE 5.1 8.9----29.91- 73.9 75.0----
2024-04-18 05:00 am SE 8.0 11.1----29.90-0.01 73.9 75.0----
2024-04-18 04:54 am SE 6.0 8.9----29.91- 74.1 75.0----
2024-04-18 04:48 am SE 7.0 8.9----29.91- 74.1 75.0----
2024-04-18 04:42 am SE 8.0 11.1----29.91- 74.1 75.0----
2024-04-18 04:36 amSSE 6.0 8.0----29.92- 74.1 75.0----
2024-04-18 04:30 am SE 6.0 8.0----29.91- 74.1 75.0----
2024-04-18 04:24 amSSE 6.0 7.0----29.92- 74.1 75.0----
2024-04-18 04:18 am SE 5.1 6.0----29.92- 74.1 75.0----
2024-04-18 04:12 am SE 5.1 6.0----29.92- 74.1 75.0----
2024-04-18 04:06 am SE 4.1 6.0----29.92- 74.1 75.0----
2024-04-18 04:00 am SE 5.1 7.0----29.91-0.02 74.1 75.2----
2024-04-18 03:54 amSSE 4.1 7.0----29.92- 74.3 75.2----
2024-04-18 03:48 amSSE 5.1 6.0----29.92- 74.3 75.2----
2024-04-18 03:42 am SE 5.1 7.0----29.92- 74.3 75.2----
2024-04-18 03:36 am SE 5.1 6.0----29.92- 74.3 75.2----
2024-04-18 03:30 am SE 5.1 8.0----29.92- 74.3 75.2----
2024-04-18 03:24 amSSE 4.1 5.1----29.92- 74.5 75.2----
2024-04-18 03:18 amSSE 4.1 8.9----29.92- 74.5 75.2----
2024-04-18 03:12 am S 6.0 8.0----29.92- 74.5 75.2----
2024-04-18 03:06 am S 6.0 8.9----29.92- 74.5 75.2----
2024-04-18 03:00 am SE 7.0 8.9----29.92-0.03 74.5 75.2----
2024-04-18 02:54 amSSE 6.0 9.9----29.92- 74.5 75.2----
2024-04-18 02:48 amSSE 5.1 8.0----29.92- 74.5 75.2----
2024-04-18 02:42 amSSE 5.1 8.9----29.92- 74.5 75.2----
2024-04-18 02:36 am SE 5.1 7.0----29.91- 74.3 75.2----
2024-04-18 02:30 amESE 6.0 8.9----29.91- 74.5 75.2----
2024-04-18 02:24 amESE 7.0 12.0----29.90- 74.5 75.2----
2024-04-18 02:18 amESE 9.9 12.0----29.90- 74.3 75.2----
2024-04-18 02:12 amESE 8.9 12.0----29.90- 74.3 75.2----
2024-04-18 02:06 amESE 8.0 11.1----29.91- 74.3 75.2----
2024-04-18 02:00 amESE 8.0 9.9----29.92-0.03 74.3 75.2----
2024-04-18 01:54 am SE 6.0 8.9----29.93- 74.3 75.2----
2024-04-18 01:48 am SE 6.0 9.9----29.93- 74.3 75.2----
2024-04-18 01:42 am SE 6.0 8.0----29.93- 74.3 75.2----
2024-04-18 01:36 am SE 8.0 13.0----29.92- 74.1 75.2----
2024-04-18 01:30 amESE 11.1 13.0----29.91- 74.3 75.2----
2024-04-18 01:24 amESE 9.9 12.0----29.91- 74.1 75.2----
2024-04-18 01:18 amESE 7.0 8.9----29.93- 74.3 75.2----
2024-04-18 01:12 amESE 8.0 13.0----29.93- 74.3 75.0----
2024-04-18 01:06 am SE 11.1 14.0----29.92- 74.3 75.2----
2024-04-18 01:00 am SE 7.0 11.1----29.93-0.03 74.3 75.0----
2024-04-18 12:54 am SE 8.9 11.1----29.93- 74.3 75.0----
2024-04-18 12:48 amESE 7.0 8.0----29.94- 74.3 75.0----
2024-04-18 12:42 amESE 6.0 8.9----29.95- 74.3 75.0----
2024-04-18 12:36 amESE 8.0 9.9----29.94- 74.3 75.0----
2024-04-18 12:30 am SE 7.0 9.9----29.95- 74.3 75.0----
2024-04-18 12:24 am SE 7.0 8.9----29.95- 74.3 75.0----
2024-04-18 12:18 am SE 6.0 8.9----29.95- 74.3 75.0----
2024-04-18 12:12 amESE 8.9 9.9----29.95- 74.3 75.0----
2024-04-18 12:06 amESE 8.0 9.9----29.95- 74.3 75.0----
2024-04-18 12:00 am SE 8.9 11.1----29.95+0.02 74.3 75.0----
2024-04-17 11:54 pm SE 8.0 11.1----29.96- 74.3 75.0----
2024-04-17 11:48 pm SE 6.0 8.0----29.96- 74.3 75.0----
2024-04-17 11:42 pmSSE 5.1 7.0----29.97- 74.3 75.0----
2024-04-17 11:36 pmSSE 5.1 8.9----29.97- 74.1 75.0----
2024-04-17 11:30 pm SE 7.0 9.9----29.96- 74.1 75.0----
2024-04-17 11:24 pm SE 7.0 13.0----29.96- 74.1 75.0----
2024-04-17 11:18 pm SE 8.9 11.1----29.95- 73.9 75.0----
2024-04-17 11:12 pm SE 7.0 13.0----29.95- 73.9 75.0----
2024-04-17 11:06 pm SE 9.9 14.0----29.94- 73.9 75.0----
2024-04-17 11:00 pm SE 8.9 13.0----29.95+0.04 73.9 75.0----
2024-04-17 10:54 pm SE 11.1 13.0----29.94- 73.9 75.0----
2024-04-17 10:48 pm SE 8.9 11.1----29.95- 73.9 75.0----
2024-04-17 10:42 pm SE 7.0 13.0----29.96- 73.9 75.0----
2024-04-17 10:36 pm SE 8.9 12.0----29.96- 73.9 75.0----
2024-04-17 10:30 pm SE 8.9 12.0----29.96- 73.9 75.0----
2024-04-17 10:24 pmSSE 6.0 7.0----29.98- 73.9 75.0----
2024-04-17 10:18 pm SE 6.0 8.9----29.98- 73.9 74.8----
2024-04-17 10:12 pmESE 6.0 8.9----29.97- 73.9 75.0----
2024-04-17 10:06 pmESE 7.0 8.9----29.96- 73.9 75.0----
2024-04-17 10:00 pmESE 6.0 8.9----29.96+0.05 73.9 75.0----
2024-04-17 09:54 pmESE 7.0 8.9----29.95- 73.8 75.0----
2024-04-17 09:48 pmESE 6.0 8.9----29.95- 73.8 74.8----
2024-04-17 09:42 pmESE 7.0 8.0----29.95- 73.8 74.8----
2024-04-17 09:36 pmESE 6.0 8.9----29.95- 73.8 74.8----
2024-04-17 09:30 pmESE 6.0 9.9----29.94- 73.8 74.8----
2024-04-17 09:24 pmESE 8.0 9.9----29.94- 73.8 74.8----
2024-04-17 09:18 pmESE 8.9 9.9----29.94- 73.8 74.8----
2024-04-17 09:12 pm E 8.0 12.0----29.93- 73.8 74.8----
2024-04-17 09:06 pm E 8.9 12.0----29.93- 73.6 74.8----
2024-04-17 09:00 pmESE 8.0 11.1----29.93+0.02 73.6 74.8----
2024-04-17 08:54 pmESE 8.9 13.0----29.92- 73.6 74.8----
2024-04-17 08:48 pmESE 8.9 12.0----29.92- 73.6 74.8----
2024-04-17 08:42 pmESE 8.9 12.0----29.92- 73.6 74.8----
2024-04-17 08:36 pmESE 8.9 13.0----29.93- 73.6 74.8----
2024-04-17 08:30 pmESE 8.0 13.0----29.92- 73.6 74.8----
2024-04-17 08:24 pm SE 8.9 14.0----29.91- 73.6 75.0----
2024-04-17 08:18 pmESE 12.0 15.0----29.91- 73.6 75.0----
2024-04-17 08:12 pmESE 11.1 13.0----29.91- 73.6 75.0----
2024-04-17 08:06 pmESE 9.9 14.0----29.91- 73.4 75.0----
2024-04-17 08:00 pmESE 9.9 13.0----29.91-0.01 73.6 75.0----
2024-04-17 07:54 pmESE 11.1 13.0----29.91- 73.6 75.0----
2024-04-17 07:48 pmESE 11.1 13.0----29.91- 73.6 75.0----
2024-04-17 07:42 pmESE 9.9 13.0----29.90- 73.6 75.0----
2024-04-17 07:36 pmESE 9.9 13.0----29.91- 73.8 75.0----
2024-04-17 07:30 pmESE 8.9 12.0----29.91- 73.9 75.0----
2024-04-17 07:24 pmESE 9.9 12.0----29.91- 73.9 75.0----
2024-04-17 07:18 pmESE 8.9 12.0----29.91- 73.9 75.0----
2024-04-17 07:12 pmESE 8.0 11.1----29.91- 74.1 75.0----
2024-04-17 07:06 pmESE 8.0 11.1----29.92- 74.1 75.0----
2024-04-17 07:00 pmESE 8.9 11.1----29.91-0.03 74.1 75.0----
2024-04-17 06:54 pmESE 8.9 11.1----29.91- 74.1 75.0----
2024-04-17 06:48 pmESE 8.0 11.1----29.91- 74.3 75.2----
2024-04-17 06:42 pmESE 8.9 11.1----29.91- 74.3 75.2----
2024-04-17 06:36 pm SE 8.9 12.0----29.91- 74.1 75.2----
2024-04-17 06:30 pm SE 7.0 12.0----29.91- 74.3 75.2----
2024-04-17 06:24 pmESE 8.9 11.1----29.90- 74.5 75.2----
2024-04-17 06:18 pm SE 4.1 9.9----29.92- 74.5 75.2----
2024-04-17 06:00 pmESE 8.9 11.1----29.91-0.04 74.3 75.2----
2024-04-17 05:54 pmESE 8.9 11.1----29.91- 74.3 75.2----
2024-04-17 05:48 pm SE 6.0 8.9----29.92- 74.5 75.2----
2024-04-17 05:42 pmESE 7.0 8.9----29.91- 74.7 75.4----
2024-04-17 05:36 pmESE 7.0 8.9----29.91- 74.7 75.4----
2024-04-17 05:30 pmESE 7.0 8.9----29.91- 74.5 75.0----
2024-04-17 05:24 pm SE 7.0 9.9----29.91- 74.7 75.0----
2024-04-17 05:18 pmSSE 8.0 11.1----29.91- 74.8 75.0----
2024-04-17 05:12 pmESE 7.0 9.9----29.91- 75.0 75.0----
2024-04-17 05:06 pmESE 7.0 8.9----29.91- 75.4 75.0----
2024-04-17 05:00 pmESE 7.0 8.9----29.92-0.04- 75.0----
2024-04-17 04:54 pmESE 7.0 9.9----29.92-- 75.0----
2024-04-17 04:48 pmESE 8.0 8.9----29.91- 75.0 75.0----
2024-04-17 04:42 pmESE 7.0 8.9----29.92- 75.6 75.0----
2024-04-17 04:36 pmESE 7.0 8.9----29.92- 75.2 75.2----
2024-04-17 04:30 pm E 7.0 8.9----29.92- 75.0 75.2----
2024-04-17 04:24 pm E 8.0 9.9----29.92- 75.0 75.2----
2024-04-17 04:18 pmESE 8.9 11.1----29.92- 75.2 75.7----
2024-04-17 04:12 pmESE 8.0 11.1----29.93- 75.7 75.4----
2024-04-17 04:06 pmESE 7.0 9.9----29.93- 75.6 75.0----
2024-04-17 04:00 pmESE 8.0 9.9----29.94-0.03 75.6 75.0----
2024-04-17 03:54 pmESE 8.0 11.1----29.94- 75.7 75.0----
2024-04-17 03:48 pmESE 8.0 9.9----29.94- 75.7 74.8----
2024-04-17 03:42 pmESE 8.0 9.9----29.94- 75.4 74.8----
2024-04-17 03:36 pmESE 8.0 9.9----29.95- 75.4 74.8----
2024-04-17 03:30 pmESE 7.0 8.9----29.95- 75.7 74.8----
2024-04-17 03:24 pmESE 8.0 9.9----29.95- 75.6 74.7----
2024-04-17 03:18 pm E 7.0 9.9----29.95- 75.2 74.8----
2024-04-17 03:12 pmESE 7.0 8.9----29.96- 75.2 74.8----
2024-04-17 03:06 pm E 8.0 11.1----29.95- 75.2 74.8----
2024-04-17 03:00 pmESE 8.9 9.9----29.95-0.04 75.4 75.0----
2024-04-17 02:54 pmESE 8.9 9.9----29.95- 75.7 74.5----
2024-04-17 02:48 pmESE 8.0 11.1----29.96- 75.6 74.5----
2024-04-17 02:42 pm SE 8.0 12.0----29.96- 76.1 74.7----
2024-04-17 02:36 pmESE 8.9 12.0----29.96- 75.6 74.7----
2024-04-17 02:30 pmESE 8.9 12.0----29.96- 75.7 74.3----
2024-04-17 02:24 pmESE 9.9 13.0----29.96- 75.7 74.5----
2024-04-17 02:18 pm SE 8.9 12.0----29.96- 76.3 74.3----
2024-04-17 02:12 pmESE 8.9 12.0----29.97- 75.6 74.3----
2024-04-17 02:06 pmESE 8.0 11.1----29.97- 75.4 74.7----
2024-04-17 02:00 pmESE 9.9 11.1----29.96-0.01 74.8 74.8----
2024-04-17 01:54 pmESE 8.0 11.1----29.96- 75.7 74.3----
2024-04-17 01:48 pmESE 8.0 13.0----29.98- 75.6 74.3----
2024-04-17 01:42 pmESE 11.1 13.0----29.97- 74.8 74.3----
2024-04-17 01:36 pm SE 8.0 12.0----29.97- 75.7 74.3----
2024-04-17 01:30 pmESE 8.9 12.0----29.97- 75.0 74.1----
2024-04-17 01:24 pmESE 9.9 12.0----29.97- 74.5 74.1----
2024-04-17 01:18 pmESE 9.9 13.0----29.96- 74.7 74.3----
2024-04-17 01:12 pmESE 9.9 14.0----29.96- 75.0 74.3----
2024-04-17 01:06 pmESE 9.9 12.0----29.97- 75.0 74.3----
2024-04-17 01:00 pmESE 8.9 13.0----29.97-0.01 74.8 74.1----
2024-04-17 12:54 pmESE 9.9 13.0----29.97- 75.0 74.3----
2024-04-17 12:48 pmESE 8.9 12.0----29.97- 75.2 74.1----
2024-04-17 12:42 pm E 9.9 12.0----29.97- 75.0 74.1----
2024-04-17 12:36 pm E 8.0 11.1----29.98- 74.8 74.1----
2024-04-17 12:30 pmESE 8.9 12.0----29.98- 74.7 74.3----
2024-04-17 12:24 pmESE 8.9 11.1----29.98- 74.7 74.1----
2024-04-17 12:18 pmESE 9.9 12.0----29.98- 74.3 73.9----
2024-04-17 12:12 pmESE 8.0 9.9----29.99- 74.3 74.1----
2024-04-17 12:06 pm E 8.0 9.9----29.99- 74.3 74.1----
2024-04-17 12:00 pmESE 7.0 11.1----29.99+0.02 74.1 74.1----
2024-04-17 11:54 amESE 8.0 12.0----29.98- 74.1 74.3----